Temperature
21 21 22 23 23 21 21 20 20 21 20 21 20 20 21 21 21 21 22 22 22 22 21 21 21 20 20 19 19 18 18 18 18 17 17 17 17 17 16 16 16 16 16 15
21 22 22 23 22 22 22 21 21 21 21 20 20 21 21 21 21 21 21 22 22 21 21 21 20 20 20 19 19 19 18 18 18 17 17 17 17 16 16 16 16 15 15 15
19 20 22 22 22 22 22 21 21 21 21 20 19 19 20 21 21 21 22 22 22 22 21 21 20 20 20 19 19 18 18 18 17 17 17 17 16 16 16 16 15 15 15 15
17 21 22 21 21 21 21 21 20 20 20 19 20 21 22 22 22 22 22 22 22 22 21 21 20 20 19 19 19 18 18 18 17 17 16 16 16 16 15 15 15 15 15 15
16 18 20 21 21 21 21 21 20 19 19 19 19 20 20 21 22 22 22 22 22 22 21 21 20 20 19 19 18 18 18 17 17 17 16 16 16 15 15 15 15 14 14 14
15 19 19 20 21 21 21 21 20 19 18 18 19 19 19 21 21 22 21 21 21 21 21 20 20 19 19 19 18 18 18 17 17 16 16 16 15 15 15 15 14 14 14 14
16 18 18 19 20 21 21 20 20 19 19 18 19 20 21 21 21 21 21 21 20 20 20 20 20 19 19 18 18 18 17 17 16 16 16 15 15 15 14 14 14 14 13 13
14 17 18 19 19 19 19 20 20 19 19 19 20 20 20 20 20 20 20 20 20 20 20 20 19 19 18 18 17 17 17 16 16 16 15 15 15 14 14 14 14 13 13 13
15 16 17 18 18 20 19 19 20 19 19 20 19 19 20 20 20 20 20 20 19 19 19 19 18 18 18 17 17 16 16 16 16 15 15 15 14 14 14 13 13 13 13 13
14 15 16 17 18 19 20 19 20 20 20 20 20 20 20 19 19 19 19 19 19 19 18 18 17 17 17 17 16 16 16 15 15 15 14 14 14 14 13 13 13 13 13 12
14 14 16 17 18 19 19 19 19 19 19 19 19 19 19 19 19 19 19 19 18 18 18 17 17 17 16 16 16 16 15 15 15 14 14 14 13 13 13 13 12 12 12 12
14 15 14 16 18 18 18 18 19 19 18 19 19 19 19 19 18 18 18 18 18 17 17 17 16 16 16 16 15 15 15 14 14 14 14 13 13 13 12 12 12 12 12 12
16 16 16 17 17 17 17 18 18 18 19 18 19 18 18 18 18 17 17 17 17 17 16 16 16 16 15 15 15 15 14 14 14 13 13 13 13 12 12 12 11 11 11 11
16 16 15 16 16 17 17 17 17 17 17 18 18 17 17 17 17 16 16 16 16 16 16 15 15 15 15 14 14 14 14 14 13 13 13 12 12 12 12 12 11 11 11 11
16 16 15 16 16 16 17 17 17 17 17 16 16 16 16 16 16 16 16 16 15 15 15 15 14 14 14 14 14 14 13 13 13 13 12 12 12 12 11 11 11 11 10 10
15 15 15 15 15 16 16 16 16 16 16 16 16 16 16 16 15 15 15 15 15 15 14 14 14 14 14 13 13 13 13 12 12 12 12 12 12 11 11 11 10 10 10 10
15 14 15 15 15 15 16 16 16 16 15 15 15 15 15 15 15 14 14 14 14 14 14 14 13 13 13 13 13 12 12 12 12 12 12 11 11 11 11 10 10 10 10 9
16 16 15 15 15 15 15 15 15 15 15 15 15 15 15 14 14 14 14 13 13 13 13 13 13 13 12 12 12 12 12 12 12 11 11 11 11 11 10 10 10 10 9 9
15 15 15 15 15 15 15 15 15 15 15 15 15 14 14 14 13 13 13 13 13 13 12 12 12 12 12 12 12 12 12 11 11 11 11 11 11 10 10 10 10 10 9 9
15 15 15 15 15 15 15 15 15 14 14 14 14 14 14 13 13 13 13 12 12 12 12 12 12 12 11 11 11 11 11 11 11 11 11 11 10 10 10 10 9 9 9 9
14 15 14 14 14 14 14 14 14 14 14 14 14 13 13 13 13 13 12 12 12 12 12 12 11 11 11 11 11 11 11 11 11 10 10 10 10 10 10 9 9 9 9 8
14 14 14 14 14 14 14 14 14 14 13 13 13 13 13 13 12 12 12 12 12 11 11 11 11 11 11 11 11 11 10 10 10 10 10 10 10 10 9 9 9 9 8 8
13 14 14 13 13 13 13 13 13 13 13 13 13 13 12 12 12 12 12 11 11 11 11 11 11 11 11 11 11 10 10 10 10 10 10 10 10 9 9 9 9 9 8 8
13 13 13 13 13 13 13 13 13 12 12 12 12 12 12 12 12 11 11 11 11 11 11 11 11 10 10 10 10 10 10 10 10 10 10 10 9 9 9 9 9 8 8 8
13 13 13 13 13 13 12 12 12 12 12 12 12 12 12 12 11 11 11 11 11 11 11 11 10 10 10 10 10 10 10 10 10 10 10 9 9 9 9 9 8 8 8 8
12 12 12 12 12 12 12 12 12 12 12 12 11 11 11 11 11 11 11 11 11 10 10 10 10 10 10 10 10 10 10 10 10 10 9 9 9 9 9 9 8 8 8 8
12 12 12 12 12 12 12 12 12 11 11 11 11 11 11 11 11 11 11 10 10 10 10 10 10 10 10 10 10 10 10 10 9 9 9 9 9 9 9 8 8 8 8 7
Wind_Speed
4 3 3 3 4 6 6 8 8 8 8 9 9 9 8 8 7 7 7 6 6 6 5 5 5 5 4 4 3 3 4 3 2 2 1 2 2 2 2 2 2 2 3 3
1 1 2 2 4 6 5 5 5 3 7 7 4 3 5 7 9 9 8 8 6 6 6 6 6 5 4 4 4 4 4 3 2 2 2 2 2 2 2 2 2 3 2 2
2 3 2 3 5 5 4 4 6 7 8 3 3 6 8 9 9 9 9 8 7 7 7 7 6 6 5 4 4 4 4 3 2 2 2 2 2 2 2 2 2 3 2 2
2 2 4 8 3 3 4 3 5 5 4 5 5 4 4 6 8 8 7 7 7 7 6 5 5 5 5 5 4 4 3 3 2 3 3 3 3 3 2 2 2 2 2 2
4 4 5 6 2 3 3 3 2 3 2 1 3 4 2 2 5 7 7 7 6 6 6 6 6 6 6 5 4 4 3 3 2 3 3 3 3 2 2 2 2 2 2 2
5 5 7 8 4 2 3 4 3 3 5 4 5 3 3 2 4 5 5 5 6 6 6 6 5 6 6 5 5 4 3 3 3 3 4 3 3 2 2 3 2 2 3 3
5 4 7 6 5 1 4 7 3 4 6 7 4 5 4 4 4 6 6 6 7 7 6 5 5 6 6 5 4 3 3 3 3 3 3 3 3 2 2 3 3 3 3 3
4 4 6 4 1 4 6 3 2 3 4 4 3 3 4 5 6 7 7 7 7 6 5 5 6 6 5 4 3 4 4 4 3 3 3 3 4 3 3 3 4 3 3 3
6 6 5 3 4 4 2 2 2 3 3 5 4 3 3 4 6 7 7 7 6 7 6 4 3 5 5 3 4 5 5 4 3 3 3 3 4 4 3 3 3 2 2 1
2 5 5 5 4 3 2 2 2 3 5 5 5 4 4 5 6 6 6 6 6 7 7 4 2 3 4 4 5 5 5 4 3 4 4 4 3 3 3 2 2 1 1 0
3 5 5 6 4 3 2 0 1 1 1 4 5 4 4 6 6 6 5 5 6 7 7 6 4 3 3 4 5 5 4 4 3 3 4 3 3 3 2 1 1 1 1 1
6 6 4 6 5 3 1 1 2 2 1 1 3 4 5 7 6 6 6 5 6 6 6 5 5 4 3 3 5 6 4 3 3 3 3 3 3 3 6 4 3 3 2 2
7 5 5 5 4 2 2 2 1 2 4 3 2 4 7 6 6 6 6 6 7 6 6 5 5 4 3 3 4 5 4 3 3 2 3 3 3 3 2 4 6 6 4 3
5 3 4 4 4 2 0 1 2 2 1 2 3 5 8 7 6 6 6 6 6 7 6 5 5 3 2 3 4 4 4 3 3 3 3 3 3 3 3 3 2 2 3 3
4 3 5 3 2 1 1 3 4 3 2 3 5 7 8 8 7 5 4 5 7 7 5 5 4 3 2 3 4 4 3 3 2 2 3 3 3 3 2 2 2 1 1 3
2 1 2 2 2 2 2 4 5 3 3 4 6 6 7 7 7 5 4 5 7 6 5 4 4 2 3 4 4 3 2 3 3 3 3 3 3 3 2 2 2 1 1 0
3 3 4 4 4 3 2 3 5 6 5 6 7 7 8 8 7 6 4 4 5 5 4 4 3 3 3 4 4 3 3 3 3 3 3 3 3 3 3 2 2 1 0 0
5 6 6 6 5 4 3 3 4 5 5 7 8 8 8 8 7 6 5 5 5 4 3 2 3 3 3 3 3 3 3 3 3 3 3 3 3 2 2 2 2 2 0 0
2 3 4 5 5 5 4 4 5 5 5 7 8 8 7 7 6 6 6 6 5 3 1 1 3 3 3 3 3 3 3 3 3 2 2 3 3 2 2 2 2 2 2 1
1 3 3 3 3 4 6 6 7 6 5 7 8 8 8 6 6 6 6 5 2 2 2 2 2 2 2 2 4 3 3 3 3 3 3 3 3 3 2 2 2 2 1 1
2 3 4 4 3 5 6 7 8 7 6 7 8 7 7 6 5 6 6 3 1 1 2 2 2 2 2 3 4 3 3 3 3 3 3 3 3 3 3 2 2 2 1 1
2 4 5 5 6 5 4 6 7 7 6 6 6 7 6 5 5 4 3 3 2 3 2 2 2 2 2 3 3 3 3 3 3 3 3 3 3 3 3 2 2 2 1 1
3 4 5 5 5 5 5 5 6 6 6 5 5 6 5 5 4 4 2 1 2 3 2 2 2 3 4 3 2 3 3 3 3 3 3 3 3 3 3 3 2 2 2 2
4 4 4 5 5 5 5 4 4 4 4 4 4 5 5 4 2 1 2 3 4 4 2 2 3 3 4 3 3 3 3 3 3 2 3 3 2 2 3 3 2 2 2 2
4 4 5 5 4 3 3 4 4 3 4 3 3 3 3 3 3 2 2 3 3 3 2 2 4 4 3 3 3 3 3 2 2 2 2 2 3 3 2 3 3 3 2 3
3 3 3 3 3 2 3 4 3 2 3 3 2 1 2 2 2 2 2 2 3 3 2 2 2 3 3 3 3 3 3 3 2 2 3 3 3 3 3 3 4 3 3 3
4 4 3 3 3 2 3 3 3 2 3 3 2 2 2 2 2 2 2 2 2 2 2 2 2 2 3 3 2 2 2 2 2 3 3 3 3 3 3 4 3 3 3 3
Wind_Direction
214 219 190 188 189 177 177 181 183 221 218 238 230 214 202 188 175 167 171 173 176 173 165 158 155 156 158 155 143 139 134 141 159 150 133 118 105 99 94 88 85 79 70 55
306 278 197 203 218 193 200 189 206 216 245 252 238 183 176 179 177 180 185 184 177 171 166 166 167 169 163 157 157 148 149 165 158 143 135 121 106 98 95 86 76 73 71 66
234 302 61 265 230 192 188 195 177 202 231 228 190 194 192 187 184 188 188 182 177 177 179 176 173 169 169 171 156 146 157 158 150 153 145 134 112 99 98 93 85 75 64 68
135 96 204 239 253 187 181 214 209 222 234 202 210 212 180 169 178 185 183 179 179 177 173 165 160 154 151 148 150 151 154 157 164 159 149 131 116 111 101 91 87 76 66 60
132 172 256 287 266 173 181 247 226 203 214 109 92 74 33 164 171 181 178 170 169 168 162 152 152 149 140 142 145 148 158 166 165 156 144 135 126 123 123 103 77 59 58 58
133 157 217 242 273 268 145 254 252 182 173 152 112 131 241 220 158 153 143 140 140 134 128 139 149 146 140 146 147 159 168 159 145 142 145 146 140 131 114 110 107 83 61 50
153 189 246 256 287 69 160 241 248 183 174 164 180 202 197 159 144 137 131 131 132 129 136 144 141 139 142 148 166 171 138 120 117 126 140 140 130 119 110 106 96 80 72 51
148 172 242 275 101 168 218 265 211 188 177 163 160 142 140 139 139 133 128 124 125 127 129 129 136 141 144 158 162 129 122 118 118 117 123 122 118 111 105 108 101 83 73 50
188 209 246 267 235 254 228 226 231 187 173 148 144 154 147 142 140 137 134 131 128 128 118 112 128 140 147 158 131 124 120 120 118 108 97 111 119 119 111 105 108 94 81 55
260 275 283 289 284 284 260 244 242 183 168 160 160 164 157 148 143 141 138 137 131 127 126 130 133 126 134 129 127 122 123 123 120 115 102 91 93 104 112 117 122 121 108 73
264 281 308 307 300 299 319 8 92 99 159 174 157 156 160 152 150 149 140 135 135 138 140 142 135 121 117 125 124 119 120 123 119 119 122 109 88 71 91 83 156 173 186 170
234 239 235 271 290 296 282 237 172 151 129 169 162 165 159 154 150 146 140 135 135 133 132 133 132 128 126 130 130 130 131 135 134 132 127 124 115 78 51 54 54 76 93 127
244 255 250 273 293 305 291 276 237 186 180 172 169 157 149 144 144 139 138 139 142 140 135 133 129 125 128 134 135 137 143 147 142 140 140 138 138 136 110 55 56 64 70 76
247 252 275 274 277 305 350 39 55 63 91 145 149 138 136 132 132 136 140 142 137 130 126 126 124 123 122 123 127 133 138 144 146 156 156 154 156 152 142 130 95 39 33 44
275 233 233 249 266 282 179 127 107 98 84 96 121 128 133 133 135 135 130 130 125 119 118 119 119 113 106 122 127 130 135 141 148 153 150 146 143 140 138 134 124 93 49 36
278 241 203 204 221 225 173 145 138 140 128 125 125 127 128 127 123 115 117 128 130 129 130 128 128 130 122 118 120 124 130 138 140 145 137 135 139 145 148 146 137 126 106 56
210 217 210 207 212 197 172 171 163 155 148 144 146 137 126 121 116 111 114 120 123 127 131 132 135 127 121 127 138 141 135 137 131 132 142 149 153 159 161 159 158 156 187 236
222 213 199 189 184 170 150 141 139 146 156 152 142 132 129 131 132 132 127 118 109 95 89 107 116 117 121 132 138 140 141 141 139 142 145 146 148 154 160 166 173 167 144 58
210 181 166 159 162 161 160 148 137 132 140 143 138 138 136 132 133 132 123 121 120 120 105 94 116 115 123 132 127 135 138 137 135 136 137 136 135 140 151 159 167 171 168 156
120 130 133 140 148 149 144 134 121 113 124 131 128 127 124 126 132 131 125 124 150 186 181 130 121 119 127 130 121 132 138 143 144 144 139 143 147 149 156 160 162 169 175 188
119 123 127 128 115 111 123 125 120 120 121 122 125 128 129 132 133 132 129 131 199 146 132 133 131 138 136 132 127 136 140 141 142 146 151 155 154 156 161 167 173 182 189 204
96 108 107 109 109 107 113 116 121 123 120 115 116 122 125 128 126 119 126 158 178 158 148 157 162 155 142 137 142 146 148 147 147 149 158 165 166 169 178 190 201 206 203 213
89 96 97 106 116 112 104 107 115 123 131 137 139 142 141 142 144 142 154 194 165 165 164 172 169 153 144 138 143 145 148 153 159 165 171 175 178 182 190 201 210 216 217 217
80 81 86 90 97 105 108 104 101 114 123 123 135 139 137 133 129 157 163 162 163 163 169 175 165 161 155 151 148 151 159 165 168 172 174 175 181 187 192 194 197 202 209 211
78 82 93 102 106 117 119 112 103 101 104 104 108 118 133 148 160 174 166 166 164 162 166 166 165 164 159 156 158 163 171 174 172 170 172 179 188 192 196 199 200 204 211 215
75 83 89 94 102 123 126 122 123 127 125 119 108 109 117 125 140 150 153 163 162 160 159 157 160 161 160 163 170 173 171 165 166 177 186 191 194 197 204 210 213 218 223 225
66 68 71 64 58 83 115 126 137 149 154 154 156 160 159 156 156 163 166 166 162 163 165 163 161 165 166 165 166 174 176 179 190 197 197 197 198 206 216 216 220 224 225 224
Height
1508 1506 1505 1506 1507 1510 1514 1519 1526 1520 1518 1507 1502 1502 1502 1505 1507 1510 1512 1515 1518 1520 1523 1525 1527 1529 1531 1532 1533 1534 1534 1534 1534 1534 1535 1535 1534 1534 1534 1534 1534 1534 1533 1533
1508 1504 1503 1505 1505 1506 1508 1510 1512 1511 1510 1499 1499 1500 1502 1504 1506 1508 1510 1513 1516 1518 1521 1524 1526 1527 1529 1530 1531 1532 1533 1533 1533 1533 1533 1533 1533 1533 1533 1533 1533 1532 1532 1532
1518 1510 1505 1513 1505 1504 1504 1503 1506 1510 1503 1496 1497 1497 1498 1501 1503 1506 1508 1511 1514 1516 1519 1522 1524 1526 1527 1529 1530 1530 1531 1531 1532 1532 1532 1532 1532 1532 1532 1532 1532 1531 1531 1530
1522 1515 1523 1509 1495 1496 1498 1498 1498 1497 1495 1494 1494 1494 1497 1499 1501 1504 1506 1509 1512 1515 1517 1520 1523 1525 1526 1528 1528 1529 1529 1530 1530 1531 1531 1531 1531 1531 1531 1531 1530 1530 1530 1530
1526 1525 1517 1503 1494 1495 1498 1499 1494 1494 1493 1494 1494 1495 1497 1498 1500 1502 1504 1507 1511 1514 1517 1519 1521 1523 1524 1526 1527 1527 1528 1529 1529 1530 1530 1530 1530 1529 1529 1529 1530 1530 1529 1529
1522 1522 1523 1504 1491 1490 1494 1500 1491 1491 1492 1493 1494 1500 1498 1496 1498 1500 1503 1506 1509 1512 1515 1517 1520 1522 1523 1524 1525 1526 1527 1528 1528 1529 1529 1529 1529 1529 1529 1528 1529 1529 1529 1528
1518 1517 1510 1494 1489 1489 1504 1500 1488 1488 1489 1491 1492 1493 1494 1495 1497 1499 1502 1506 1508 1510 1513 1516 1519 1521 1522 1522 1523 1525 1526 1527 1527 1527 1527 1528 1528 1528 1528 1528 1528 1528 1528 1527
1517 1516 1510 1489 1489 1493 1493 1487 1486 1486 1487 1489 1490 1490 1492 1494 1496 1499 1501 1505 1507 1509 1512 1515 1517 1518 1520 1521 1522 1523 1524 1525 1526 1526 1526 1526 1526 1526 1527 1527 1527 1527 1527 1527
1504 1502 1491 1488 1488 1487 1486 1485 1485 1485 1486 1487 1489 1490 1492 1494 1497 1499 1501 1504 1506 1509 1511 1514 1516 1517 1518 1519 1521 1522 1523 1523 1524 1524 1524 1524 1525 1525 1526 1526 1526 1526 1526 1526
1497 1492 1488 1486 1485 1484 1484 1484 1484 1484 1485 1487 1488 1489 1491 1494 1496 1499 1501 1503 1505 1507 1509 1512 1515 1516 1517 1518 1520 1521 1522 1522 1523 1524 1523 1524 1524 1524 1525 1525 1525 1526 1525 1525
1495 1490 1487 1484 1484 1483 1483 1483 1483 1484 1486 1487 1487 1488 1491 1492 1495 1498 1500 1503 1505 1507 1508 1510 1513 1515 1517 1518 1518 1519 1521 1521 1522 1523 1523 1523 1524 1524 1524 1525 1525 1525 1525 1525
1492 1487 1487 1484 1484 1484 1483 1482 1482 1483 1484 1486 1487 1488 1490 1492 1495 1498 1500 1502 1504 1506 1508 1510 1512 1514 1516 1517 1518 1518 1519 1521 1521 1522 1522 1522 1523 1523 1523 1524 1524 1524 1524 1524
1485 1484 1484 1483 1482 1483 1483 1482 1482 1483 1483 1484 1486 1488 1489 1492 1495 1497 1499 1501 1503 1505 1507 1509 1511 1513 1515 1516 1517 1517 1518 1519 1520 1521 1521 1522 1522 1522 1522 1523 1523 1523 1523 1523
1482 1482 1481 1480 1480 1481 1481 1481 1482 1483 1484 1485 1485 1487 1488 1491 1494 1497 1498 1500 1503 1505 1506 1508 1510 1512 1513 1514 1515 1516 1517 1518 1519 1520 1520 1520 1521 1521 1522 1522 1522 1522 1522 1522
1478 1478 1478 1478 1478 1479 1480 1480 1481 1482 1483 1484 1485 1487 1488 1491 1494 1497 1499 1501 1502 1504 1506 1508 1509 1510 1512 1513 1514 1515 1516 1517 1518 1519 1519 1520 1520 1521 1521 1521 1521 1521 1521 1521
1475 1475 1476 1476 1477 1477 1478 1479 1480 1481 1482 1483 1485 1487 1489 1492 1494 1497 1500 1501 1503 1504 1505 1507 1508 1509 1510 1511 1512 1513 1514 1516 1517 1517 1518 1518 1519 1519 1520 1520 1520 1520 1520 1520
1473 1473 1474 1475 1475 1475 1476 1478 1478 1479 1481 1483 1485 1487 1489 1492 1494 1497 1499 1501 1503 1505 1505 1506 1507 1508 1509 1509 1511 1512 1513 1514 1515 1516 1516 1517 1518 1518 1519 1519 1519 1519 1519 1519
1471 1471 1471 1472 1472 1474 1475 1477 1478 1479 1480 1482 1484 1485 1488 1490 1492 1495 1498 1501 1503 1504 1505 1506 1506 1507 1508 1509 1510 1511 1512 1512 1513 1514 1515 1516 1517 1517 1518 1518 1518 1518 1518 1518
1468 1469 1469 1470 1471 1472 1473 1475 1476 1478 1480 1481 1482 1484 1486 1489 1493 1495 1497 1500 1502 1503 1505 1506 1506 1507 1508 1508 1509 1510 1511 1512 1513 1514 1515 1515 1516 1516 1517 1517 1517 1517 1517 1517
1467 1468 1469 1469 1470 1471 1472 1473 1474 1477 1479 1480 1482 1484 1486 1489 1493 1495 1497 1499 1502 1503 1505 1505 1506 1507 1507 1508 1508 1509 1510 1511 1512 1513 1514 1515 1515 1515 1516 1516 1516 1516 1516 1516
1467 1467 1468 1469 1470 1472 1473 1474 1475 1478 1480 1481 1483 1485 1487 1490 1493 1495 1497 1499 1502 1503 1504 1505 1506 1506 1507 1507 1508 1509 1510 1510 1511 1512 1513 1514 1514 1514 1515 1515 1515 1515 1515 1515
1467 1468 1469 1470 1471 1473 1475 1476 1478 1480 1482 1483 1484 1487 1489 1491 1493 1495 1497 1499 1501 1503 1504 1505 1505 1506 1506 1507 1507 1508 1509 1510 1511 1512 1512 1513 1513 1513 1514 1514 1514 1514 1513 1513
1469 1470 1471 1472 1473 1475 1477 1479 1480 1481 1483 1484 1486 1488 1490 1491 1493 1495 1497 1500 1502 1503 1503 1504 1504 1505 1505 1506 1507 1508 1508 1509 1510 1511 1511 1512 1512 1512 1513 1513 1513 1512 1512 1512
1471 1472 1473 1474 1476 1477 1479 1480 1482 1483 1484 1486 1488 1489 1490 1492 1493 1496 1498 1500 1501 1502 1502 1503 1503 1504 1505 1505 1506 1507 1508 1508 1509 1509 1510 1511 1511 1511 1511 1511 1511 1511 1510 1510
1474 1474 1475 1477 1478 1479 1481 1482 1484 1485 1486 1487 1489 1490 1491 1492 1494 1496 1498 1499 1500 1500 1500 1501 1502 1503 1504 1504 1505 1506 1507 1507 1508 1508 1509 1509 1510 1510 1510 1510 1509 1509 1509 1508
1476 1477 1478 1479 1480 1481 1482 1483 1485 1486 1487 1488 1489 1490 1492 1493 1494 1496 1497 1498 1498 1499 1499 1500 1501 1501 1502 1503 1504 1505 1505 1506 1507 1507 1507 1508 1508 1508 1508 1508 1507 1507 1506 1505
1478 1479 1480 1481 1482 1482 1483 1485 1486 1487 1488 1489 1489 1491 1492 1493 1494 1495 1496 1497 1497 1498 1499 1499 1500 1500 1501 1502 1503 1504 1504 1505 1505 1506 1506 1506 1506 1506 1506 1505 1505 1504 1504 1503